Location: Newark
(26.2500°N, 17.3000°E)
Time: 08:32:33
(UTC+00:00)

ISS - Visible Passes

Search period start: 22 October 2019 00:00
Search period end: 01 November 2019 00:00
Orbit: 411 x 421 km, 51.6° (Epoch: 22 October)

Date Brightness Start Highest point End Pass type
(mag) Time Alt. Az. Time Alt. Az. Time Alt. Az.
23 Oct -3.7 03:57:22 10° SW 04:00:43 82° SE 04:04:05 10° NE visible
24 Oct -2.4 03:12:01 35° SE 03:12:13 35° SE 03:15:19 10° ENE visible
25 Oct -2.5 03:59:32 23° WNW 04:00:18 25° NW 04:03:08 10° NNE visible
26 Oct -1.5 03:13:48 19° NNE 03:13:48 19° NNE 03:14:55 10° NNE visible
